Wind_Speed
6 5 2 4 4 4 1 0 1 2 1 2 1 2 3 2 3 2 2 9 3 10 22 21 19 16 14 12 11 10 9 8 7 7 8 8 8 8 6 7 8 7 8 11 10 9 8 8 8
5 3 4 2 4 3 2 3 2 1 2 2 1 1 3 1 0 1 3 8 3 11 20 20 19 17 14 12 10 9 7 7 7 6 6 6 6 6 8 8 5 6 9 7 7 8 7 6 6
2 4 3 4 3 3 3 3 2 2 2 1 2 2 2 2 2 2 2 8 3 10 16 20 19 17 15 12 11 9 8 6 4 4 4 4 5 5 6 5 4 7 6 5 6 6 6 6 6
1 5 4 4 3 2 1 1 2 2 3 3 1 3 2 2 2 3 4 6 3 8 12 19 19 18 16 13 11 11 10 8 5 4 3 3 3 4 4 4 6 2 5 7 6 6 6 7 7
6 3 4 4 0 1 3 3 2 1 1 2 2 1 1 4 4 5 5 5 3 4 10 15 18 19 17 17 14 11 11 9 7 5 4 4 4 2 2 3 4 2 2 5 5 6 6 7 7
4 3 4 2 2 2 3 1 2 1 0 1 2 2 1 7 5 5 4 5 5 4 6 9 15 17 17 16 14 13 12 10 8 6 6 7 5 2 2 2 2 2 2 1 4 5 6 6 5
6 4 4 4 3 1 2 2 3 2 2 2 2 2 2 9 11 2 3 6 7 5 3 6 10 15 17 16 16 15 14 12 11 9 8 8 6 4 2 1 2 1 3 4 7 4 6 6 4
4 4 4 2 3 3 1 0 1 1 2 5 1 1 1 6 11 3 4 6 5 5 3 3 6 11 16 18 18 18 17 16 14 11 9 9 8 7 4 4 2 1 2 3 6 7 7 7 3
3 4 3 5 5 3 1 1 0 2 2 4 3 4 4 9 4 2 4 6 5 5 3 2 6 8 11 15 17 18 18 16 14 12 10 10 9 8 8 7 6 3 3 4 6 7 9 8 4
4 3 6 4 4 3 1 1 1 1 4 1 3 6 12 15 16 17 16 15 15 13 8 6 6 8 12 12 13 15 17 16 15 14 12 11 10 9 8 9 10 7 4 5 8 11 11 11 7
2 4 4 2 3 4 3 2 1 3 0 2 2 2 10 14 17 16 13 13 14 12 10 9 7 8 11 11 13 12 12 13 13 13 13 12 13 11 11 10 10 9 7 6 6 9 12 11 9
2 1 3 1 2 3 2 3 3 4 2 5 7 6 6 12 12 13 15 17 18 15 13 10 7 5 9 13 10 10 9 8 9 12 11 12 14 13 13 11 11 10 8 7 6 6 10 10 9
2 1 2 2 5 4 2 4 5 3 7 10 11 13 10 11 11 11 12 13 16 18 17 15 11 8 5 11 16 10 8 6 5 6 9 10 11 12 12 11 11 10 10 10 8 7 7 8 8
2 2 5 5 3 3 4 3 4 2 7 9 10 8 7 9 9 10 16 16 15 15 16 15 11 8 3 5 13 12 8 5 4 4 3 5 8 10 12 12 13 10 12 11 10 9 9 6 5
2 3 6 3 0 3 6 2 6 6 6 8 6 5 6 8 12 12 11 11 13 14 15 16 14 12 12 13 14 13 12 10 10 10 7 6 4 3 6 8 9 9 11 11 10 10 8 8 7
2 4 3 2 1 1 3 5 2 8 9 6 4 5 7 9 9 11 11 11 11 11 14 16 16 18 20 21 21 20 19 19 17 17 17 13 12 8 5 4 2 4 5 7 9 8 7 8 9
6 3 4 7 2 1 2 5 3 4 5 5 4 4 5 5 10 11 10 9 9 11 13 18 20 23 22 24 27 28 27 25 24 21 19 17 16 15 14 14 15 13 11 9 6 5 7 8 8
6 4 5 5 1 2 1 9 5 5 6 6 5 4 4 5 7 10 12 11 12 11 14 18 21 23 27 27 30 31 30 29 26 25 24 21 20 17 16 16 16 15 13 12 10 9 7 7 9
5 4 6 2 2 3 6 6 13 7 5 7 7 7 5 5 5 12 15 14 15 16 16 16 18 21 24 26 26 28 30 29 28 25 24 23 21 20 19 19 16 16 15 14 12 9 10 11 15
4 4 6 5 3 3 6 9 12 3 3 4 9 8 8 5 5 10 14 17 19 19 20 19 18 19 22 24 27 28 29 30 27 25 24 22 21 20 20 20 20 18 16 17 18 16 10 10 16
5 7 4 6 3 2 3 7 6 1 2 4 4 4 4 6 6 6 11 16 17 20 21 20 20 22 25 26 27 29 30 28 29 30 30 29 27 26 25 24 23 23 22 23 22 21 20 15 15
5 8 6 4 3 4 1 5 6 0 2 3 5 5 6 6 4 6 7 11 14 17 20 22 22 18 16 16 19 24 30 30 27 30 29 30 29 29 28 27 27 27 27 27 26 23 22 19 18
6 6 7 4 4 2 3 1 7 1 5 4 6 6 7 8 7 7 7 9 11 13 20 23 24 26 25 25 26 30 34 31 27 27 26 27 26 25 25 24 24 25 25 24 23 24 24 23 20
9 6 6 4 3 1 8 7 4 4 5 4 6 8 6 4 4 5 6 7 11 13 17 21 24 24 23 24 25 27 29 27 25 23 24 23 23 23 23 22 22 23 22 21 21 20 20 19 18
1 6 0 1 0 5 1 5 7 6 5 4 11 11 9 8 7 8 11 10 9 11 15 19 22 24 22 23 24 24 24 23 22 21 21 20 19 20 19 18 18 19 18 18 18 18 18 17 16
7 6 5 7 4 3 2 6 6 3 2 1 4 11 10 9 7 8 13 14 15 13 13 15 18 21 20 20 22 20 20 21 20 19 18 18 17 17 15 15 15 16 16 16 17 17 17 16 17
5 5 2 5 3 2 4 4 4 1 1 3 6 10 12 11 10 9 16 17 16 14 13 14 15 17 17 18 19 18 17 17 18 16 15 14 13 13 12 12 14 16 17 19 20 20 20 19 19
4 6 3 2 1 4 4 4 4 6 7 5 7 11 12 9 9 9 17 21 19 17 15 15 15 16 17 16 16 16 15 14 13 12 11 10 9 8 9 11 13 14 15 16 17 18 18 20 22
4 3 3 3 4 5 2 4 5 8 8 12 12 13 14 14 13 11 18 22 20 19 18 18 17 18 17 16 15 14 13 11 9 7 7 6 6 6 8 10 12 14 16 17 19 19 19 22 24
3 8 7 5 6 3 3 5 0 3 6 8 9 11 11 12 13 14 18 22 22 22 22 22 21 20 18 17 15 13 11 9 7 6 4 3 4 5 7 10 12 14 16 18 18 17 20 21 21
Wind_Direction
335 344 355 40 60 65 21 73 275 12 39 259 215 148 139 136 141 134 341 182 1 186 180 179 182 178 175 170 168 157 148 140 131 125 120 116 117 118 112 113 107 63 61 72 54 55 56 55 54
360 4 52 74 82 68 285 267 163 242 238 288 137 69 78 71 248 342 66 169 17 172 187 184 184 186 186 183 179 177 168 158 149 140 134 126 120 116 116 124 102 92 90 52 35 43 45 44 43
31 39 78 85 105 146 178 235 280 304 317 89 101 52 135 23 39 93 21 171 136 171 187 191 191 193 194 195 198 197 189 177 165 153 141 127 120 115 122 132 102 107 61 11 11 17 15 16 9
57 33 49 77 97 198 169 289 222 324 337 36 93 61 322 343 337 1 75 141 141 168 182 193 196 199 200 197 200 207 200 198 195 191 172 151 137 107 93 114 105 55 27 358 338 330 352 357 358
51 55 59 85 146 224 253 249 172 124 179 325 351 345 18 11 35 49 68 76 74 154 184 199 206 207 206 206 206 211 213 210 210 207 198 181 176 118 97 114 144 123 3 15 22 2 347 353 358
47 88 70 154 220 280 276 290 184 148 359 322 68 91 39 23 32 43 72 67 72 118 174 196 210 216 219 218 214 216 224 224 222 230 212 204 207 206 165 127 143 182 232 298 6 0 359 358 4
105 79 155 149 177 256 205 330 176 164 339 85 159 102 158 25 20 28 81 63 62 78 134 192 206 215 221 224 222 222 230 233 230 229 229 212 231 230 215 216 178 263 261 291 328 339 358 357 13
101 90 110 203 173 198 252 298 124 82 271 315 173 86 151 337 352 25 79 77 73 81 113 194 222 223 221 223 225 229 231 233 233 232 231 228 237 241 248 247 256 306 314 328 341 345 346 351 8
124 67 145 196 156 184 323 84 130 340 7 352 15 74 353 351 2 77 52 20 19 20 5 290 229 229 235 228 229 232 233 237 238 233 236 234 231 234 259 256 268 279 305 330 335 341 348 349 354
77 99 204 186 190 147 106 199 267 140 355 334 84 84 39 41 48 48 33 16 13 9 3 332 289 249 228 234 229 230 233 231 231 231 239 236 240 243 242 256 246 250 268 318 328 342 348 350 341
167 161 189 205 185 161 168 258 170 134 241 223 270 4 28 31 37 37 28 18 3 360 358 350 318 282 255 233 233 230 232 230 239 239 249 237 235 247 244 239 251 258 256 266 300 326 330 336 338
95 104 180 317 153 144 181 145 269 170 174 81 75 75 51 36 32 22 11 4 1 360 358 351 332 298 256 237 223 234 236 237 236 241 250 258 252 246 244 237 239 244 250 261 277 306 316 316 328
109 315 208 266 273 246 114 214 230 201 133 95 74 55 44 36 28 28 23 18 10 6 1 356 348 331 271 224 197 196 204 207 234 269 282 254 257 257 253 253 253 256 253 250 255 270 291 310 325
166 266 278 272 192 214 189 202 147 143 127 84 77 69 56 45 24 19 19 14 21 16 12 8 4 1 350 184 173 170 165 151 158 185 229 272 277 273 249 243 248 258 263 257 255 265 269 277 304
102 318 328 271 149 220 158 152 228 138 129 102 100 109 85 51 35 27 18 20 20 31 31 28 38 58 80 106 127 129 130 129 107 94 81 57 42 310 287 268 248 256 260 264 269 273 269 272 282
61 50 358 272 154 356 165 259 187 168 149 143 117 75 60 45 36 31 27 26 29 48 60 65 73 82 99 113 121 118 114 107 102 97 91 86 72 65 68 63 15 318 291 280 272 265 273 288 307
6 240 220 316 229 107 172 261 205 166 127 140 117 87 68 42 28 27 31 39 49 54 69 81 94 102 103 110 109 105 100 93 88 86 83 78 83 80 74 70 65 63 54 43 17 333 322 320 322
201 216 245 227 209 169 195 269 215 205 156 168 154 114 90 63 24 22 34 39 44 64 89 96 102 110 116 114 109 104 99 93 88 83 80 78 76 76 74 70 61 56 58 55 46 31 13 359 343
139 175 231 219 258 179 236 254 274 170 146 161 165 162 141 101 49 49 54 56 65 67 70 85 101 107 117 116 112 105 92 86 82 78 75 73 71 69 69 70 68 61 57 52 44 38 24 18 4
135 180 248 294 226 167 268 254 259 230 192 194 176 170 156 129 83 54 62 69 66 73 78 82 91 100 103 109 105 101 94 87 85 81 78 75 71 68 65 62 60 59 59 52 46 43 47 31 26
201 200 197 222 354 250 327 282 252 244 87 62 76 95 104 122 101 66 64 69 78 80 84 90 94 99 103 106 109 105 99 93 86 81 80 77 75 72 69 68 65 62 56 52 46 42 39 31 28
208 195 180 176 103 238 34 283 306 156 179 105 124 146 151 139 127 91 73 66 71 80 98 102 110 112 112 118 117 111 102 93 90 88 85 80 76 73 71 70 68 66 63 60 56 51 48 44 34
223 136 162 134 154 82 258 295 266 340 262 191 189 180 180 171 164 144 117 108 100 103 103 104 105 105 109 111 109 106 103 102 100 95 90 84 79 74 72 69 68 65 62 58 54 52 50 50 50
149 84 61 61 111 225 224 182 261 215 208 154 168 190 178 161 128 125 120 115 111 110 109 108 108 106 110 110 108 107 110 112 106 97 90 85 80 76 69 63 59 59 55 51 49 47 44 41 36
154 111 113 335 278 226 176 146 238 206 189 193 192 177 174 171 168 164 162 153 136 130 125 119 116 113 115 113 111 112 111 109 104 98 92 85 76 69 64 59 51 48 45 38 35 31 29 24 19
187 179 169 205 198 223 41 220 254 173 116 293 215 169 166 173 174 178 181 178 165 166 145 131 126 120 120 118 115 114 111 106 102 95 88 81 75 69 60 50 44 37 32 27 23 19 15 7 2
196 215 172 98 58 64 225 285 274 177 198 88 145 161 177 186 186 186 188 187 185 183 162 152 140 134 133 128 123 117 112 106 101 95 86 79 70 58 47 36 28 21 13 9 5 3 359 355 351
165 165 93 7 219 267 271 261 228 210 209 173 186 191 189 183 186 196 197 197 194 189 177 173 165 156 149 141 134 125 119 112 106 98 85 70 60 43 25 13 7 2 359 355 352 349 348 345 343
150 198 70 128 152 194 259 246 217 189 187 195 202 196 190 191 196 195 200 204 201 195 188 186 181 174 165 158 149 144 135 124 115 106 94 77 54 30 12 3 357 354 351 350 347 345 343 338 335
196 181 162 168 216 222 173 237 283 235 220 190 195 195 194 195 197 197 198 200 201 200 196 195 192 188 183 174 166 163 159 156 151 142 120 84 42 11 357 350 348 348 348 348 345 341 338 335 331
Height
816 815 814 815 840 852 866 856 850 846 844 838 835 837 839 838 845 856 836 836 836 836 839 842 845 848 850 852 854 855 857 858 860 861 861 862 863 864 865 865 866 867 867 867 867 866 866 866 866
816 815 816 828 855 869 864 855 849 843 838 836 836 837 839 842 835 835 835 836 837 838 841 843 846 848 851 853 855 857 858 859 860 861 862 863 864 865 865 866 867 868 868 868 868 868 867 867 867
815 815 824 846 869 869 862 851 846 840 836 836 838 835 836 838 835 835 835 835 836 837 840 843 846 849 851 853 855 857 859 860 862 863 863 864 865 866 867 867 868 869 869 869 869 869 868 868 868
815 817 834 853 856 855 851 846 843 840 836 835 836 839 837 836 835 835 835 836 837 838 839 842 845 848 851 853 855 857 859 860 861 863 864 865 866 867 868 868 869 870 870 870 870 869 869 868 868
816 827 852 860 856 851 849 842 841 841 840 838 837 840 840 836 836 837 837 838 838 839 841 843 845 847 849 852 854 857 858 860 861 863 864 865 866 867 868 869 870 870 871 871 870 869 868 868 868
829 837 859 864 857 849 846 842 839 840 839 837 838 841 841 838 837 837 837 837 838 838 840 842 845 847 849 851 854 856 858 859 861 862 863 864 865 866 868 869 870 871 872 872 871 870 869 869 869
835 849 862 861 857 850 843 842 840 840 839 839 836 841 839 837 838 837 837 838 838 839 840 841 843 845 847 850 852 855 857 858 860 861 863 864 865 866 867 868 870 871 871 871 871 869 869 869 869
835 847 860 857 856 851 841 839 837 838 838 835 835 843 843 840 839 839 838 838 838 838 839 840 842 843 844 846 849 852 854 855 857 859 861 863 864 866 867 869 870 871 871 871 871 871 870 869 870
831 854 864 855 858 846 841 841 838 838 839 838 838 841 847 843 840 838 837 837 838 838 838 839 839 840 842 844 845 848 851 854 856 858 859 861 863 864 866 868 869 870 870 871 871 871 871 870 870
840 856 850 845 845 844 842 841 841 840 843 839 840 842 845 843 840 840 840 840 839 838 838 838 838 838 839 841 843 845 848 851 854 856 858 859 861 863 864 866 867 868 869 870 871 871 871 870 869
842 847 842 838 838 839 841 841 839 841 845 840 841 844 846 845 843 843 843 843 841 839 837 836 836 836 837 839 841 844 846 849 852 855 857 858 859 861 862 863 865 866 867 868 869 870 871 870 869
839 839 840 836 836 839 840 840 840 841 841 843 846 848 849 848 847 846 845 843 841 839 836 834 832 832 832 835 840 844 847 849 851 853 855 856 857 859 860 861 862 864 865 866 867 867 868 868 868
838 838 838 837 838 839 839 840 839 839 844 848 850 851 852 850 849 848 846 844 841 838 836 833 831 829 828 828 833 839 844 847 850 852 854 855 856 858 859 861 862 863 863 863 864 865 866 866 866
837 838 840 836 835 836 838 840 838 840 846 850 851 853 853 851 850 848 846 844 840 838 835 833 830 828 826 827 832 837 841 845 848 849 850 852 854 857 858 858 861 862 863 863 862 863 863 864 864
838 841 841 833 834 833 836 844 840 836 843 849 850 850 851 852 852 850 848 845 841 838 836 833 830 829 828 831 835 838 840 843 845 847 849 851 852 852 855 858 859 859 861 862 863 863 863 863 863
844 850 850 833 834 833 835 840 831 835 836 845 850 853 855 855 854 851 849 846 844 839 835 832 832 833 832 833 835 838 842 844 846 847 848 850 853 854 855 855 856 858 858 858 860 861 862 862 862
858 855 856 845 835 834 836 836 830 836 839 848 853 854 855 856 854 852 849 846 843 842 840 836 833 832 836 836 837 841 844 847 850 850 851 852 851 854 856 857 857 856 857 858 860 860 861 862 861
856 857 856 849 836 836 839 837 834 835 840 847 853 855 855 856 856 855 852 851 849 845 841 839 837 834 833 837 840 841 843 847 851 852 854 855 855 855 855 857 859 859 858 859 860 861 863 861 860
846 850 845 842 837 837 840 841 828 835 841 848 852 853 854 855 858 857 854 854 851 850 850 847 845 842 840 839 840 842 845 850 851 854 857 857 859 859 858 859 859 861 861 861 861 861 863 863 862
846 848 850 845 841 841 842 841 830 830 836 842 846 850 853 855 856 857 855 851 851 849 850 852 852 852 850 848 848 849 852 854 858 860 859 860 862 861 862 863 863 865 864 864 863 862 863 865 864
848 848 849 843 844 843 845 843 832 836 842 846 852 856 859 859 861 859 858 855 853 851 848 851 856 856 855 854 853 853 855 860 863 865 864 864 865 866 867 866 867 867 868 866 867 865 865 866 867
846 841 841 843 848 855 846 851 832 833 841 849 854 858 860 860 862 862 863 861 859 856 849 849 849 857 860 859 858 858 860 863 868 869 871 869 870 870 870 869 869 869 870 869 869 868 868 867 869
832 838 842 843 851 853 850 857 836 834 828 847 855 859 859 858 858 859 863 861 861 860 855 853 854 855 857 861 862 861 862 868 873 872 872 872 873 874 874 874 873 873 873 874 873 871 872 872 872
835 838 847 858 857 864 842 842 836 828 823 839 849 855 862 866 866 868 868 869 866 864 863 860 859 859 861 862 863 864 865 870 872 875 875 876 875 875 876 877 877 875 876 877 876 875 875 875 875
830 837 851 857 864 846 847 848 821 816 824 826 834 845 853 857 858 859 861 867 873 871 866 862 860 861 864 865 865 867 868 871 873 876 876 877 878 878 878 878 879 879 877 878 877 876 876 876 875
832 828 837 843 851 839 853 836 812 818 829 834 837 841 849 853 856 857 861 864 863 867 868 867 865 865 867 869 868 870 871 871 873 875 877 877 879 879 880 881 880 880 879 879 877 877 876 877 874
825 829 823 843 904 863 827 817 808 827 828 833 838 843 846 848 851 852 855 856 862 868 867 868 869 868 869 869 870 871 872 873 874 875 878 879 880 880 880 881 880 878 878 876 875 874 874 873 873
811 815 828 844 844 861 826 818 803 817 818 832 839 840 841 844 848 851 852 855 857 863 864 869 868 868 869 869 869 872 874 874 875 877 877 878 878 880 880 879 878 877 876 876 875 873 872 871 869
815 817 822 819 829 832 844 812 807 803 810 819 826 830 833 837 840 840 845 851 856 860 861 866 867 867 867 869 869 871 873 875 876 878 878 879 879 879 879 878 877 875 874 873 871 870 868 867 865
797 800 803 812 822 841 830 797 808 806 809 812 819 824 827 831 834 835 838 846 853 856 859 861 862 863 864 866 868 870 871 874 875 876 876 877 876 877 877 875 874 872 871 869 868 866 864 862 860